Showing default

CALSPHERE 1, 900

Orbit data source: Space-Track

CALSPHERE 1, 900 is a payload satellite owned by NRL (US) in LEO that was launched on Tue, 06 Oct 1964 UTC via a THOR ABLESTAR launch vehicle from the Air Force Western Test Range (AFWTR). Payload-class satellites include a variety of spacecraft equipped with specific instruments for various scientific and technological missions. These include communications satellites like Starlink; space stations such as the ISS; scientific satellites like the Hubble; Earth observation satellites from companies like Planet Labs, Umbra, and HawkEye 360; GPS; miniature CubeSats for education and research; and military/defense satellites.

Loading next visibility...
Identifier
900, 1964-063C
Orbit
LEO
Country
Flag of USUS
Related business
Manufacturer
NRL
Mission
Operational spacecraft
Bus & Motor
NRL 14", Unknown motor
Mass
1 kg wet, 1 kg dry
Launch date (UTC)
1964-10-06 (61 years ago)
Launch vehicle
THOR ABLESTAR
Launch site
Air Force Western Test Range (AFWTR)
Object type
Payload
Rocket body
Debris
Shape & HBR
Unknown
Radar Cross Section
Small (<0.1 m²)

Expand to show TLE details & history
Last TLE update: 7 hours ago

TLE from 7 hours ago
0 CALSPHERE 1
1 00900U 64063C   25343.29487051  .00001129  00000-0  11442-2 0  9998
2 00900  90.2213  67.3780 0027424 145.8433 280.5505 13.76361616 45303
Epoch: 2025-12-09T07:04Z
TLE epoch observation values (Epoch: 2025-12-09T07:04:36.812Z)
Latitude
66.16417°
Longitude
-117.5553°
Altitude
984.709 km
Speed
7.367 km/s
True Right ascension
04h 27m 31s
True Declination
66° 02' 27"
Sunlit
Object was in full shadow at epoch
Visualization orbit readout
Latitude
Unknown
Longitude
Unknown
Altitude
Unknown
Speed
Unknown
Apparent Right ascension
Unknown
Apparent Declination
Unknown
Sunlit
N/A
Visualization observer readout
Local Sidereal Time
12:17:31
Azimuth
Unknown
Elevation
Unknown
Doppler factor
Unknown
Orbital elements
Apogee altitude
993.994 km
Perigee altitude
953.67 km
Semi-major axis
7,351.969 km
Eccentricity
0.00274
Inclination
90.2213°
RAAN
67.378°
Arg. of periapsis
145.8433°
True anomaly
280.24136°
Mean anomaly
280.5505°
Eccentric anomaly
280.39595°
Mean motion
3.44301 °/min
Orbital period
104.56 mins
BSTAR
0.0011442
Loading maneuver chart data...
Computing Atmospheric mass density...
Loading historical data...
Loading historical data...
Loading historical data...
Loading historical data...
Loading historical data...
Loading historical data...
Loading historical data...

Documentation

Showing up to 5 results
|